Weather History for Franklin, NC

Change the Weather History Date:

Friday, March 30, 2012

  Actual Average (KTOC) Record (KTOC)
Temperature  
Mean Temperature 56 °F -  
Max Temperature 71 °F 69 °F 70 °F (2014)
Min Temperature 42 °F 46 °F 43 °F (2014)
Degree Days  
Heating Degree Days 8    
Growing Degree Days 6 (Base 50)    
Moisture  
Dew Point 48 °F    
Average Humidity 81    
Maximum Humidity 100    
Minimum Humidity 46    
Precipitation  
Precipitation 0.02 in - - ()
Sea Level Pressure  
Sea Level Pressure 30.01 in    
Wind  
Wind Speed 1 mph (SE)    
Max Wind Speed 9 mph    
Max Gust Speed 21 mph    
Visibility 7 miles    
Events Rain    
Averages and records for this station are not official NWS values.
T = Trace of Precipitation, MM = Missing Value Source: NWS Daily Summary

Daily Weather History Graph

Daily Weather History Graph

Search for Another Location

Airport:

Trip Planner

Search our weather history database for the weather conditions in past years. The results will help you decide how hot, cold, wet, or windy it might be!

Date:

Astronomy

Mar. 30, 2012 Rise Set
Actual Time 7:22 AM EDT 7:53 PM EDT
Civil Twilight 6:57 AM EDT 8:19 PM EDT
Nautical Twilight 6:27 AM EDT 8:49 PM EDT
Astronomical Twilight 5:56 AM EDT 9:20 PM EDT
Moon 12:37 PM EDT (3/30) 2:19 AM EDT (3/30)
Length of Visible Light 13h 22m
Length of Day
12h 31m
Waxing Crescent, 49% of the Moon is Illuminated
Mar 30
Waxing Crescent
Mar 30
First Quarter
Apr 6
Full
Apr 13
Last Quarter
Apr 21
New

Hourly Weather History & Observations

Time (EDT) Temp. Dew Point Humidity Pressure Visibility Wind Dir Wind Speed Gust Speed Precip Events Conditions
12:15 AM 50.0 °F 46.4 °F 87% 30.02 in 7.0 mi Calm Calm - N/A   Clear
12:35 AM 50.0 °F 46.4 °F 87% 30.02 in 7.0 mi Calm Calm - N/A   Mostly Cloudy
12:55 AM 50.0 °F 46.4 °F 87% 30.02 in 7.0 mi Calm Calm - N/A   Scattered Clouds
1:15 AM 50.0 °F 46.4 °F 87% 30.02 in 7.0 mi Calm Calm - N/A   Scattered Clouds
1:35 AM 48.2 °F 46.4 °F 93% 30.02 in 7.0 mi Calm Calm - N/A   Scattered Clouds
1:55 AM 48.2 °F 46.4 °F 93% 30.01 in 7.0 mi Calm Calm - N/A   Clear
2:15 AM 48.2 °F 46.4 °F 93% 30.01 in 7.0 mi Calm Calm - N/A   Clear
2:35 AM 46.4 °F 44.6 °F 93% 30.01 in 5.0 mi Calm Calm - N/A   Clear
2:55 AM 46.4 °F 46.4 °F 100% 30.01 in 4.0 mi Calm Calm - N/A   Scattered Clouds
3:15 AM 46.4 °F 44.6 °F 93% 30.01 in 5.0 mi Calm Calm - N/A   Scattered Clouds
3:35 AM 46.4 °F 44.6 °F 93% 30.01 in 3.0 mi Calm Calm - N/A   Mist
3:55 AM 44.6 °F 44.6 °F 100% 30.00 in 4.0 mi Calm Calm - N/A   Clear
4:15 AM 44.6 °F 44.6 °F 100% 30.00 in 7.0 mi Calm Calm - N/A   Clear
4:35 AM 44.6 °F 42.8 °F 93% 30.01 in 3.0 mi Calm Calm - N/A   Mist
4:55 AM 44.6 °F 42.8 °F 93% 30.01 in 2.5 mi Calm Calm - N/A   Mist
5:15 AM 44.6 °F 42.8 °F 93% 30.01 in 7.0 mi Calm Calm - N/A   Clear
5:35 AM 44.6 °F 42.8 °F 93% 30.01 in 3.0 mi Calm Calm - N/A   Mist
5:55 AM 42.8 °F 42.8 °F 100% 30.02 in 4.0 mi Calm Calm - N/A   Clear
6:15 AM 42.8 °F 42.8 °F 100% 30.03 in 4.0 mi Calm Calm - N/A   Clear
6:35 AM 42.8 °F 41.0 °F 93% 30.03 in 5.0 mi Calm Calm - N/A   Clear
6:55 AM 42.8 °F 42.8 °F 100% 30.04 in 3.0 mi Calm Calm - N/A   Clear
7:15 AM 42.8 °F 41.0 °F 93% 30.05 in 2.5 mi Calm Calm - N/A   Mist
7:35 AM 42.8 °F 41.0 °F 93% 30.05 in 3.0 mi Calm Calm - N/A   Mist
7:55 AM 42.8 °F 41.0 °F 93% 30.05 in 3.0 mi Calm Calm - N/A   Mostly Cloudy
8:15 AM 44.6 °F 42.8 °F 93% 30.05 in 5.0 mi Calm Calm - N/A   Scattered Clouds
8:35 AM 46.4 °F 44.6 °F 93% 30.06 in 5.0 mi Calm Calm - N/A   Mostly Cloudy
8:55 AM 50.0 °F 48.2 °F 94% 30.06 in 7.0 mi Calm Calm - N/A   Mostly Cloudy
9:15 AM 50.0 °F 48.2 °F 94% 30.06 in 5.0 mi Calm Calm - N/A   Scattered Clouds
9:35 AM 51.8 °F 50.0 °F 94% 30.06 in 7.0 mi Calm Calm - N/A   Scattered Clouds
9:55 AM 57.2 °F 50.0 °F 77% 30.06 in 10.0 mi Calm Calm - N/A   Mostly Cloudy
10:15 AM 59.0 °F 50.0 °F 72% 30.04 in 10.0 mi Calm Calm - N/A   Scattered Clouds
10:35 AM 60.8 °F 50.0 °F 68% 30.04 in 10.0 mi Calm Calm - N/A   Clear
10:55 AM 64.4 °F 50.0 °F 59% 30.03 in 10.0 mi Calm Calm - 0.02 in   Clear
11:15 AM 66.2 °F 51.8 °F 60% 30.02 in 10.0 mi ESE 4.6 mph - N/A   Clear
11:35 AM 69.8 °F 51.8 °F 53% 30.01 in 10.0 mi East 3.5 mph - N/A   Clear
11:55 AM 71.6 °F 50.0 °F 46% 30.00 in 10.0 mi ESE 3.5 mph - N/A   Mostly Cloudy
12:35 PM 69.8 °F 50.0 °F 49% 29.99 in 10.0 mi ESE 4.6 mph - N/A   Overcast
12:55 PM 71.6 °F 50.0 °F 46% 29.99 in 5.0 mi ESE 3.5 mph - N/A   Haze
1:15 PM 71.6 °F 51.8 °F 50% 29.97 in 10.0 mi WSW 6.9 mph - N/A   Overcast
1:35 PM 69.8 °F 50.0 °F 49% 29.96 in 10.0 mi West 4.6 mph - N/A   Overcast
1:55 PM 69.8 °F 50.0 °F 49% 29.96 in 10.0 mi Calm Calm - N/A   Overcast
2:15 PM 68.0 °F 46.4 °F 46% 29.96 in 10.0 mi SSE 6.9 mph 20.7 mph N/A   Overcast
2:35 PM 64.4 °F 50.0 °F 59% 29.96 in 10.0 mi ESE 4.6 mph - N/A Rain Light Rain
2:55 PM 64.4 °F 51.8 °F 64% 29.95 in 10.0 mi ESE 3.5 mph - N/A   Overcast
3:15 PM 62.6 °F 51.8 °F 68% 29.97 in 10.0 mi WSW 9.2 mph 20.7 mph N/A Rain Rain
3:35 PM 60.8 °F 53.6 °F 77% 29.96 in 7.0 mi ESE 3.5 mph - N/A Rain Light Rain
3:55 PM 60.8 °F 55.4 °F 82% 29.95 in 10.0 mi Calm Calm - N/A Rain Rain
4:15 PM 60.8 °F 55.4 °F 82% 29.96 in 10.0 mi Calm Calm - N/A   Light Drizzle
4:35 PM 60.8 °F 55.4 °F 82% 29.95 in 7.0 mi Calm Calm - N/A   Drizzle
4:55 PM 60.8 °F 57.2 °F 88% 29.94 in 10.0 mi ESE 3.5 mph - N/A   Overcast
5:15 PM 60.8 °F 55.4 °F 82% 29.94 in 10.0 mi Calm Calm - N/A   Overcast
5:35 PM 60.8 °F 55.4 °F 82% 29.94 in 10.0 mi WSW 3.5 mph - N/A Rain Light Rain
5:55 PM 60.8 °F 55.4 °F 82% 29.97 in 10.0 mi WSW 4.6 mph - N/A Rain Light Rain
6:15 PM 59.0 °F 55.4 °F 88% 29.97 in 5.0 mi Calm Calm - N/A Rain Rain
6:35 PM 59.0 °F 55.4 °F 88% 29.97 in 2.5 mi Calm Calm - N/A Rain Heavy Rain
6:55 PM 59.0 °F 55.4 °F 88% 29.96 in 2.0 mi Calm Calm - N/A Rain Heavy Rain
7:15 PM 59.0 °F 55.4 °F 88% 29.95 in 4.0 mi Calm Calm - N/A Rain Light Rain
7:35 PM 57.2 °F 55.4 °F 94% 29.95 in 5.0 mi Calm Calm - N/A   Overcast
7:55 PM 57.2 °F 55.4 °F 94% 29.95 in 5.0 mi Calm Calm - N/A   Overcast
8:15 PM 57.2 °F 55.4 °F 94% 29.94 in 5.0 mi Calm Calm - N/A Rain Rain
8:35 PM 57.2 °F 55.4 °F 94% 29.94 in 5.0 mi Calm Calm - N/A Rain Rain
8:55 PM 57.2 °F 55.4 °F 94% 29.96 in 2.5 mi Calm Calm - N/A Rain Heavy Rain
9:15 PM 57.2 °F 55.4 °F 94% 29.95 in 4.0 mi Calm Calm - N/A Rain Light Rain
9:35 PM 57.2 °F 55.4 °F 94% 29.95 in 5.0 mi Calm Calm - N/A Rain Light Rain
9:55 PM 55.4 °F 55.4 °F 100% 29.95 in 3.0 mi Calm Calm - N/A   Overcast
10:15 PM 55.4 °F 55.4 °F 100% 29.95 in 2.0 mi Calm Calm - N/A   Overcast
10:35 PM 55.4 °F 55.4 °F 100% 29.95 in 3.0 mi Calm Calm - N/A   Overcast
10:55 PM 55.4 °F 55.4 °F 100% 29.95 in 3.0 mi Calm Calm - N/A   Overcast
11:15 PM 55.4 °F 53.6 °F 94% 29.94 in 2.5 mi Calm Calm - N/A Rain Light Rain
11:35 PM 55.4 °F 53.6 °F 94% 29.94 in 4.0 mi Calm Calm - N/A Rain Light Rain
11:55 PM 55.4 °F 53.6 °F 94% 29.94 in 4.0 mi Calm Calm - N/A   Drizzle